Time,TemperatureF,DewpointF,PressureIn,WindDirection,WindDirectionDegrees,WindSpeedMPH,WindSpeedGustMPH,Humidity,HourlyPrecipIn,Conditions,Clouds,dailyrainin,SoftwareType,DateUTC
2013-05-19 00:03:00,54.0,49.0,30.17,North,360,1.0,3.0,82,0.00,,,0.65,,2013-05-19 04:03:00,
2013-05-19 00:13:00,54.0,49.0,30.17,North,360,1.0,3.0,82,0.00,,,0.65,,2013-05-19 04:13:00,
2013-05-19 00:23:00,54.0,49.0,30.17,NNE,24,1.0,3.0,84,0.00,,,0.65,,2013-05-19 04:23:00,
2013-05-19 00:33:00,53.0,49.0,30.17,NNE,24,0.0,0.0,85,0.00,,,0.65,,2013-05-19 04:33:00,
2013-05-19 00:42:00,53.0,49.0,30.17,NNE,24,0.0,0.0,85,0.00,,,0.65,,2013-05-19 04:42:00,
2013-05-19 00:52:00,52.0,48.0,30.17,NNE,24,0.0,1.0,86,0.00,,,0.65,,2013-05-19 04:52:00,
2013-05-19 01:02:00,52.0,48.0,30.18,NNE,24,0.0,2.0,87,0.00,,,0.65,,2013-05-19 05:02:00,
2013-05-19 01:12:00,52.0,48.0,30.18,NNE,24,0.0,2.0,87,0.00,,,0.65,,2013-05-19 05:12:00,
2013-05-19 01:22:00,51.0,48.0,30.18,NNE,24,0.0,0.0,88,0.00,,,0.65,,2013-05-19 05:22:00,
2013-05-19 01:32:00,51.0,48.0,30.17,NNE,24,0.0,2.0,89,0.00,,,0.65,,2013-05-19 05:32:00,
2013-05-19 01:42:00,50.0,47.0,30.18,NNE,24,0.0,1.0,89,0.00,,,0.65,,2013-05-19 05:42:00,
2013-05-19 01:51:00,50.0,47.0,30.18,NNE,24,0.0,1.0,89,0.00,,,0.65,,2013-05-19 05:51:00,
2013-05-19 02:02:00,50.0,47.0,30.18,North,355,2.0,4.0,91,0.00,,,0.65,,2013-05-19 06:02:00,
2013-05-19 02:12:00,50.0,47.0,30.18,North,355,2.0,4.0,91,0.00,,,0.65,,2013-05-19 06:12:00,
2013-05-19 02:21:00,51.0,48.0,30.18,North,351,1.0,4.0,91,0.00,,,0.65,,2013-05-19 06:21:00,
2013-05-19 02:32:00,51.0,49.0,30.18,NE,46,2.0,5.0,92,0.00,,,0.65,,2013-05-19 06:32:00,
2013-05-19 02:42:00,51.0,49.0,30.18,NE,46,2.0,5.0,92,0.00,,,0.65,,2013-05-19 06:42:00,
2013-05-19 02:52:00,51.0,49.0,30.18,North,11,2.0,3.0,92,0.00,,,0.65,,2013-05-19 06:52:00,
2013-05-19 03:01:00,51.0,49.0,30.18,NNE,27,0.0,3.0,92,0.00,,,0.65,,2013-05-19 07:01:00,
2013-05-19 03:11:00,51.0,49.0,30.18,NNE,27,0.0,3.0,92,0.00,,,0.65,,2013-05-19 07:11:00,
2013-05-19 03:22:00,51.0,49.0,30.18,NNE,27,0.0,1.0,92,0.00,,,0.65,,2013-05-19 07:22:00,
2013-05-19 03:32:00,51.0,49.0,30.18,NNE,27,0.0,2.0,92,0.00,,,0.65,,2013-05-19 07:32:00,
2013-05-19 03:42:00,51.0,49.0,30.18,NNE,27,0.0,2.0,92,0.00,,,0.65,,2013-05-19 07:42:00,
2013-05-19 03:52:00,51.0,49.0,30.19,NNE,27,0.0,2.0,92,0.00,,,0.65,,2013-05-19 07:52:00,
2013-05-19 04:02:00,52.0,49.0,30.19,North,351,1.0,5.0,91,0.00,,,0.65,,2013-05-19 08:02:00,
2013-05-19 04:12:00,52.0,49.0,30.19,North,351,1.0,5.0,91,0.00,,,0.65,,2013-05-19 08:12:00,
2013-05-19 04:22:00,52.0,49.0,30.19,North,360,1.0,4.0,91,0.00,,,0.65,,2013-05-19 08:22:00,
2013-05-19 04:32:00,52.0,49.0,30.19,North,9,2.0,4.0,90,0.00,,,0.65,,2013-05-19 08:32:00,
2013-05-19 04:42:00,52.0,49.0,30.19,North,9,2.0,4.0,90,0.00,,,0.65,,2013-05-19 08:42:00,
2013-05-19 04:52:00,52.0,49.0,30.19,West,269,1.0,4.0,90,0.00,,,0.65,,2013-05-19 08:52:00,
2013-05-19 05:02:00,52.0,49.0,30.19,North,5,2.0,4.0,90,0.00,,,0.65,,2013-05-19 09:02:00,
2013-05-19 05:12:00,52.0,49.0,30.19,North,5,2.0,4.0,90,0.00,,,0.65,,2013-05-19 09:12:00,
2013-05-19 05:21:00,52.0,49.0,30.19,NNW,345,1.0,3.0,90,0.00,,,0.65,,2013-05-19 09:21:00,
2013-05-19 05:32:00,52.0,49.0,30.20,NNW,348,1.0,2.0,90,0.00,,,0.65,,2013-05-19 09:32:00,
2013-05-19 05:43:00,52.0,49.0,30.20,NNW,348,1.0,2.0,90,0.00,,,0.65,,2013-05-19 09:43:00,
2013-05-19 05:53:00,52.0,49.0,30.20,North,5,2.0,4.0,89,0.00,,,0.65,,2013-05-19 09:53:00,
2013-05-19 06:03:00,52.0,49.0,30.21,North,355,0.0,4.0,89,0.00,,,0.65,,2013-05-19 10:03:00,
2013-05-19 06:12:00,52.0,49.0,30.21,North,355,0.0,4.0,89,0.00,,,0.65,,2013-05-19 10:12:00,
2013-05-19 06:23:00,52.0,49.0,30.21,NNE,15,1.0,4.0,89,0.00,,,0.65,,2013-05-19 10:23:00,
2013-05-19 06:33:00,52.0,49.0,30.22,WSW,247,0.0,4.0,90,0.07,,,0.72,,2013-05-19 10:33:00,
2013-05-19 06:42:00,52.0,49.0,30.22,WSW,247,0.0,4.0,90,0.07,,,0.72,,2013-05-19 10:42:00,
2013-05-19 06:52:00,52.0,49.0,30.22,North,355,0.0,3.0,90,0.23,,,0.88,,2013-05-19 10:52:00,
2013-05-19 07:02:00,52.0,49.0,30.22,NE,35,2.0,4.0,90,0.23,,,0.88,,2013-05-19 11:02:00,
2013-05-19 07:12:00,52.0,49.0,30.22,NE,35,2.0,4.0,90,0.23,,,0.88,,2013-05-19 11:12:00,
2013-05-19 07:21:00,52.0,49.0,30.23,North,11,1.0,3.0,89,0.23,,,0.88,,2013-05-19 11:21:00,
2013-05-19 07:32:00,52.0,49.0,30.23,North,5,0.0,3.0,90,0.16,,,0.88,,2013-05-19 11:32:00,
2013-05-19 07:42:00,52.0,49.0,30.23,North,5,0.0,3.0,90,0.16,,,0.88,,2013-05-19 11:42:00,
2013-05-19 07:52:00,53.0,50.0,30.23,North,5,0.0,2.0,89,0.00,,,0.88,,2013-05-19 11:52:00,
2013-05-19 08:01:00,53.0,50.0,30.23,SE,130,0.0,2.0,88,0.00,,,0.88,,2013-05-19 12:01:00,
2013-05-19 08:12:00,53.0,50.0,30.23,SE,130,0.0,2.0,88,0.00,,,0.88,,2013-05-19 12:12:00,
2013-05-19 08:22:00,53.0,50.0,30.23,South,173,0.0,2.0,88,0.00,,,0.88,,2013-05-19 12:22:00,
2013-05-19 08:32:00,54.0,50.0,30.23,South,175,0.0,3.0,86,0.00,,,0.88,,2013-05-19 12:32:00,
2013-05-19 08:42:00,54.0,50.0,30.23,South,175,0.0,3.0,86,0.00,,,0.88,,2013-05-19 12:42:00,
2013-05-19 08:52:00,54.0,50.0,30.24,NNE,30,1.0,3.0,86,0.00,,,0.88,,2013-05-19 12:52:00,
2013-05-19 09:01:00,55.0,51.0,30.23,ENE,57,1.0,4.0,85,0.00,,,0.88,,2013-05-19 13:01:00,
2013-05-19 09:11:00,55.0,51.0,30.23,ENE,57,1.0,4.0,85,0.00,,,0.88,,2013-05-19 13:11:00,
2013-05-19 09:21:00,58.0,52.0,30.24,SW,224,1.0,3.0,81,0.00,,,0.88,,2013-05-19 13:21:00,
2013-05-19 09:32:00,59.0,53.0,30.24,NNE,27,1.0,3.0,80,0.00,,,0.88,,2013-05-19 13:32:00,
2013-05-19 09:42:00,59.0,53.0,30.24,NNE,27,1.0,3.0,80,0.00,,,0.88,,2013-05-19 13:42:00,
2013-05-19 09:52:00,62.0,54.0,30.23,North,355,2.0,4.0,75,0.00,,,0.88,,2013-05-19 13:52:00,
2013-05-19 10:02:00,64.0,53.0,30.23,East,98,1.0,5.0,68,0.00,,,0.88,,2013-05-19 14:02:00,
2013-05-19 10:21:00,64.0,55.0,30.23,NE,35,0.0,5.0,72,0.00,,,0.88,,2013-05-19 14:21:00,
2013-05-19 10:32:00,65.0,53.0,30.22,NE,44,3.0,6.0,66,0.00,,,0.88,,2013-05-19 14:32:00,
2013-05-19 10:42:00,65.0,53.0,30.22,NE,44,3.0,6.0,66,0.00,,,0.88,,2013-05-19 14:42:00,
2013-05-19 10:52:00,67.0,55.0,30.23,SSW,213,2.0,5.0,65,0.00,,,0.88,,2013-05-19 14:52:00,
2013-05-19 11:02:00,68.0,56.0,30.23,East,90,1.0,5.0,65,0.00,,,0.88,,2013-05-19 15:02:00,
2013-05-19 11:12:00,68.0,56.0,30.23,East,90,1.0,5.0,65,0.00,,,0.88,,2013-05-19 15:12:00,
2013-05-19 11:22:00,70.0,55.0,30.22,NNE,23,1.0,4.0,59,0.00,,,0.88,,2013-05-19 15:22:00,
2013-05-19 11:33:00,71.0,55.0,30.22,East,96,1.0,5.0,58,0.00,,,0.88,,2013-05-19 15:33:00,
2013-05-19 11:43:00,71.0,55.0,30.22,East,96,1.0,5.0,58,0.00,,,0.88,,2013-05-19 15:43:00,
2013-05-19 11:53:00,72.0,56.0,30.21,NNE,17,3.0,8.0,58,0.00,,,0.88,,2013-05-19 15:53:00,
2013-05-19 12:03:00,72.0,56.0,30.21,West,269,2.0,5.0,57,0.00,,,0.88,,2013-05-19 16:03:00,
2013-05-19 12:12:00,72.0,56.0,30.21,West,269,2.0,5.0,57,0.00,,,0.88,,2013-05-19 16:12:00,
2013-05-19 12:23:00,74.0,55.0,30.20,ESE,122,1.0,5.0,51,0.00,,,0.88,,2013-05-19 16:23:00,
2013-05-19 12:32:00,73.0,55.0,30.20,SW,218,1.0,4.0,54,0.00,,,0.88,,2013-05-19 16:32:00,
2013-05-19 12:42:00,73.0,55.0,30.20,SW,218,1.0,4.0,54,0.00,,,0.88,,2013-05-19 16:42:00,
2013-05-19 12:52:00,74.0,53.0,30.19,SW,216,2.0,6.0,48,0.00,,,0.88,,2013-05-19 16:52:00,
2013-05-19 13:02:00,74.0,55.0,30.18,SW,215,1.0,9.0,51,0.00,,,0.88,,2013-05-19 17:02:00,
2013-05-19 13:12:00,74.0,55.0,30.18,SW,215,1.0,9.0,51,0.00,,,0.88,,2013-05-19 17:12:00,
2013-05-19 13:22:00,74.0,54.0,30.18,West,263,2.0,5.0,49,0.00,,,0.88,,2013-05-19 17:22:00,
2013-05-19 13:32:00,73.0,53.0,30.16,SW,231,1.0,3.0,49,0.00,,,0.88,,2013-05-19 17:32:00,
2013-05-19 13:42:00,73.0,53.0,30.16,SW,231,1.0,3.0,49,0.00,,,0.88,,2013-05-19 17:42:00,
2013-05-19 13:52:00,72.0,52.0,30.16,SSW,209,1.0,5.0,50,0.00,,,0.88,,2013-05-19 17:52:00,
2013-05-19 14:02:00,72.0,53.0,30.15,SSE,159,2.0,5.0,51,0.00,,,0.88,,2013-05-19 18:02:00,
2013-05-19 14:12:00,72.0,53.0,30.15,SSE,159,2.0,5.0,51,0.00,,,0.88,,2013-05-19 18:12:00,
2013-05-19 14:22:00,73.0,51.0,30.15,SSE,155,3.0,7.0,46,0.00,,,0.88,,2013-05-19 18:22:00,
2013-05-19 14:32:00,73.0,52.0,30.14,SW,217,1.0,6.0,48,0.00,,,0.88,,2013-05-19 18:32:00,
2013-05-19 14:43:00,73.0,52.0,30.14,SW,217,1.0,6.0,48,0.00,,,0.88,,2013-05-19 18:43:00,
2013-05-19 14:52:00,72.0,51.0,30.14,SW,229,2.0,9.0,47,0.00,,,0.88,,2013-05-19 18:52:00,
2013-05-19 15:01:00,71.0,50.0,30.14,ESE,121,2.0,9.0,47,0.00,,,0.88,,2013-05-19 19:01:00,
2013-05-19 15:11:00,71.0,50.0,30.14,ESE,121,2.0,9.0,47,0.00,,,0.88,,2013-05-19 19:11:00,
2013-05-19 15:22:00,69.0,53.0,30.15,South,184,2.0,6.0,57,0.00,,,0.88,,2013-05-19 19:22:00,
2013-05-19 15:32:00,68.0,56.0,30.14,North,5,2.0,7.0,65,0.11,,,0.99,,2013-05-19 19:32:00,
2013-05-19 15:42:00,68.0,56.0,30.14,North,5,2.0,7.0,65,0.11,,,0.99,,2013-05-19 19:42:00,
2013-05-19 15:52:00,65.0,55.0,30.15,NE,53,2.0,7.0,70,0.27,,,1.14,,2013-05-19 19:52:00,
2013-05-19 16:02:00,64.0,55.0,30.15,West,274,2.0,8.0,72,0.27,,,1.14,,2013-05-19 20:02:00,
2013-05-19 16:11:00,64.0,55.0,30.15,West,274,2.0,8.0,72,0.27,,,1.14,,2013-05-19 20:11:00,
2013-05-19 16:22:00,64.0,55.0,30.16,NE,50,2.0,5.0,72,0.27,,,1.14,,2013-05-19 20:22:00,
2013-05-19 16:32:00,63.0,54.0,30.15,NNE,13,1.0,9.0,72,0.15,,,1.14,,2013-05-19 20:32:00,
2013-05-19 16:42:00,63.0,54.0,30.15,NNE,13,1.0,9.0,72,0.15,,,1.14,,2013-05-19 20:42:00,
2013-05-19 16:52:00,62.0,54.0,30.15,NNE,25,1.0,8.0,74,0.00,,,1.14,,2013-05-19 20:52:00,
2013-05-19 17:02:00,61.0,52.0,30.15,ENE,57,3.0,7.0,73,0.00,,,1.14,,2013-05-19 21:02:00,
2013-05-19 17:11:00,61.0,52.0,30.15,ENE,57,3.0,7.0,73,0.00,,,1.14,,2013-05-19 21:11:00,
2013-05-19 17:22:00,61.0,53.0,30.16,North,5,2.0,8.0,74,0.00,,,1.14,,2013-05-19 21:22:00,
2013-05-19 17:32:00,60.0,52.0,30.16,NE,52,2.0,4.0,76,0.00,,,1.14,,2013-05-19 21:32:00,
2013-05-19 17:43:00,60.0,52.0,30.16,NE,52,2.0,4.0,76,0.00,,,1.14,,2013-05-19 21:43:00,
2013-05-19 17:53:00,60.0,53.0,30.16,SE,142,1.0,4.0,78,0.18,,,1.33,,2013-05-19 21:53:00,
2013-05-19 18:03:00,59.0,53.0,30.16,ESE,119,1.0,6.0,81,0.26,,,1.41,,2013-05-19 22:03:00,
2013-05-19 18:12:00,59.0,53.0,30.16,ESE,119,1.0,6.0,81,0.26,,,1.41,,2013-05-19 22:12:00,
2013-05-19 18:23:00,58.0,54.0,30.16,WSW,240,0.0,5.0,85,0.27,,,1.42,,2013-05-19 22:23:00,
2013-05-19 18:33:00,58.0,54.0,30.16,NNW,340,0.0,2.0,87,0.27,,,1.11,,2013-05-19 22:33:00,
2013-05-19 18:42:00,58.0,54.0,30.16,NNW,340,0.0,2.0,87,0.27,,,1.11,,2013-05-19 22:42:00,
2013-05-19 18:53:00,58.0,54.0,30.16,SW,235,0.0,2.0,88,0.08,,,1.11,,2013-05-19 22:53:00,
2013-05-19 19:03:00,57.0,54.0,30.16,SE,138,0.0,3.0,89,0.01,,,1.11,,2013-05-19 23:03:00,
2013-05-19 19:12:00,57.0,54.0,30.16,SE,138,0.0,3.0,89,0.01,,,1.11,,2013-05-19 23:12:00,
2013-05-19 19:22:00,57.0,54.0,30.16,SE,138,0.0,0.0,90,0.00,,,1.11,,2013-05-19 23:22:00,
2013-05-19 19:32:00,57.0,54.0,30.15,SE,138,0.0,1.0,91,0.01,,,0.78,,2013-05-19 23:32:00,
2013-05-19 19:42:00,57.0,54.0,30.15,SE,138,0.0,1.0,91,0.01,,,0.78,,2013-05-19 23:42:00,
2013-05-19 19:52:00,56.0,54.0,30.15,SE,138,0.0,0.0,92,0.01,,,0.78,,2013-05-19 23:52:00,
2013-05-19 20:02:00,56.0,54.0,30.15,SSW,198,1.0,4.0,92,0.01,,,0.78,,2013-05-20 00:02:00,
2013-05-19 20:12:00,56.0,54.0,30.15,SSW,198,1.0,4.0,92,0.01,,,0.78,,2013-05-20 00:12:00,
2013-05-19 20:22:00,56.0,54.0,30.16,SSW,193,0.0,3.0,92,0.01,,,0.78,,2013-05-20 00:22:00,
2013-05-19 20:32:00,56.0,54.0,30.16,NNE,22,0.0,4.0,93,0.00,,,0.78,,2013-05-20 00:32:00,
2013-05-19 20:42:00,56.0,54.0,30.16,NNE,22,0.0,4.0,93,0.00,,,0.78,,2013-05-20 00:42:00,
2013-05-19 20:52:00,56.0,54.0,30.15,South,172,1.0,4.0,92,0.01,,,0.79,,2013-05-20 00:52:00,
2013-05-19 21:01:00,55.0,53.0,30.14,South,188,1.0,6.0,93,0.01,,,0.79,,2013-05-20 01:01:00,
2013-05-19 21:11:00,55.0,53.0,30.14,South,188,1.0,6.0,93,0.01,,,0.79,,2013-05-20 01:11:00,
2013-05-19 21:22:00,55.0,53.0,30.14,SW,217,1.0,4.0,94,0.01,,,0.79,,2013-05-20 01:22:00,
2013-05-19 21:32:00,55.0,53.0,30.14,NW,317,0.0,2.0,94,0.01,,,0.79,,2013-05-20 01:32:00,
2013-05-19 21:42:00,55.0,53.0,30.14,NW,317,0.0,2.0,94,0.01,,,0.79,,2013-05-20 01:42:00,
2013-05-19 21:52:00,55.0,53.0,30.15,SSW,200,0.0,2.0,94,0.00,,,0.79,,2013-05-20 01:52:00,
2013-05-19 22:02:00,55.0,53.0,30.14,SW,219,0.0,2.0,94,0.00,,,0.79,,2013-05-20 02:02:00,
2013-05-19 22:12:00,55.0,53.0,30.14,SW,219,0.0,2.0,94,0.00,,,0.79,,2013-05-20 02:12:00,
2013-05-19 22:21:00,55.0,54.0,30.14,NE,41,0.0,2.0,95,0.01,,,0.80,,2013-05-20 02:21:00,
2013-05-19 22:32:00,55.0,54.0,30.14,South,171,0.0,2.0,95,0.01,,,0.80,,2013-05-20 02:32:00,
2013-05-19 22:42:00,55.0,54.0,30.14,South,171,0.0,2.0,95,0.01,,,0.80,,2013-05-20 02:42:00,
2013-05-19 22:51:00,56.0,55.0,30.14,South,178,0.0,3.0,95,0.03,,,0.82,,2013-05-20 02:51:00,
2013-05-19 23:02:00,56.0,55.0,30.13,South,184,0.0,2.0,95,0.05,,,0.84,,2013-05-20 03:02:00,
2013-05-19 23:11:00,56.0,55.0,30.13,South,184,0.0,2.0,95,0.05,,,0.84,,2013-05-20 03:11:00,
2013-05-19 23:21:00,56.0,55.0,30.13,South,189,0.0,2.0,96,0.06,,,0.86,,2013-05-20 03:21:00,
2013-05-19 23:33:00,56.0,55.0,30.13,SSE,162,0.0,4.0,96,0.08,,,0.88,,2013-05-20 03:33:00,
2013-05-19 23:43:00,56.0,55.0,30.13,SSE,162,0.0,4.0,96,0.08,,,0.88,,2013-05-20 03:43:00,
2013-05-19 23:52:00,56.0,55.0,30.12,SW,228,0.0,2.0,96,0.07,,,0.89,,2013-05-20 03:52:00,